User: anonymous   Login
Location: Unspecified
(17.6330°N, 0.0000°E)
Time: 11:19:42
(UTC+00:00)
Language:

TIGRISAT - Orbit

View from above orbital plane
View from above orbital plane
View from above satellite
View from above satellite

Ground track
Ground track

The orbit data is extracted from the following two-line orbital elements,

1 40043U 14033AK  19201.18482006  .00000063  00000-0  16787-4 0  9996
2 40043  97.7537  67.6741 0059974 356.7055   3.3751 14.74275731273245
Epoch (UTC): 20 July 2019 04:26:08
Eccentricity: 0.0059974
inclination: 97.7537°
perigee height: 605 km
apogee height: 689 km
right ascension of ascending node: 67.6741°
argument of perigee: 356.7055°
revolutions per day: 14.74275731
mean anomaly at epoch: 3.3751°
orbit number at epoch: 27324

The dashed part of the orbit path shows where the satellite is in the earth's shadow,  

DLR